TJS-12

Last updated on Mon Jun 22 2026 00:03:08 GMT+0000 (Coordinated Universal Time)

1 62374U 24246A 26172.52477568 -.00000233 00000+0 00000+0 0 9999 2 62374 0.6599 299.6190 0002083 86.9315 218.5932 1.00268929 5602
UTC large
Height (km)
Speed (km/s)
/
Latitude / Longitude
Inclination (degrees)
Orbital Period (minutes)
Azimuth
Elevation
Range (km)
Doppler Factor

Next 0 passes for location: London (51.5072 / 0.1276)

No passes found over London.
TJS-12